Location: gie�en
(50.5804°N, 8.6692°E)
Time: 09:02:27
(UTC+02:00)

X-37B - Visible Passes

Search period start: 18 October 2021 00:00
Search period end: 28 October 2021 00:00
Orbit: 385 x 389 km, 45.0° (Epoch: 13 October)

Date Brightness Start Highest point End Pass type
(mag) Time Alt. Az. Time Alt. Az. Time Alt. Az.
18 Oct 2.4 19:11:35 10° SW 19:14:03 21° SSE 19:16:34 10° ESE visible
18 Oct 2.8 20:47:23 10° WSW 20:48:53 21° SW 20:48:53 21° SW visible
19 Oct 1.9 19:49:10 10° WSW 19:51:59 29° S 19:53:04 23° SE visible
20 Oct 2.2 20:27:11 10° WSW 20:29:33 27° SSW 20:29:33 27° SSW visible
21 Oct 2.0 19:28:54 10° WSW 19:31:44 30° S 19:33:45 15° SE visible
21 Oct 3.7 21:05:32 10° WSW 21:06:02 12° WSW 21:06:02 12° WSW visible
22 Oct 2.3 20:07:03 10° WSW 20:09:40 23° SSW 20:10:16 22° S visible
23 Oct 2.3 19:08:42 10° WSW 19:11:28 27° S 19:14:14 10° SE visible
23 Oct 3.4 20:45:48 10° WSW 20:46:50 13° SW 20:46:50 13° SW visible
24 Oct 2.9 19:47:03 10° WSW 19:49:21 18° SSW 19:51:11 12° SSE visible
25 Oct 2.7 18:48:34 10° WSW 18:51:11 23° SSW 18:53:48 10° SE visible
26 Oct 3.4 19:27:21 10° WSW 19:29:00 13° SSW 19:30:39 10° S visible
